STARLINK-37157, 68394

Orbit data source: Space-Track

STARLINK-37157, 68394 is a payload satellite owned by SpaceX/Seattle (US) in SSO that was launched on Thu, 26 Mar 2026 UTC via an FALCON 9 launch vehicle from the Air Force Western Test Range (AFWTR). Payload-class satellites include a variety of spacecraft equipped with specific instruments for various scientific and technological missions. These include communications satellites like Starlink; space stations such as the ISS; scientific satellites like the Hubble; Earth observation satellites from companies like Planet Labs, Umbra, and HawkEye 360; GPS; miniature CubeSats for education and research; and military/defense satellites.

Loading next visibility...
Identifier
68394, 2026-063Q
Orbit
SSO
Country
Flag of USUS
Related business
Manufacturer
SpaceX/Seattle
Mission
Operational spacecraft
Bus & Motor
STARLINK V2MO, Unknown motor
Mass
575 kg wet, ~530 kg dry
Launch date (UTC)
2026-03-26 (1 week ago)
Launch vehicle
FALCON 9
Launch site
Air Force Western Test Range (AFWTR)
Object type
Payload
Rocket body
Debris
Shape & HBR
Unknown shape, 17.7 m
Radar Cross Section
RCS unknown

Expand to show TLE details & history
Last TLE update: 7 hours ago

TLE from 7 hours ago
0 STARLINK-37157
1 68394U 26063Q   26095.58336806 -.01911155  00000-0 -79307-2 0  9991
2 68394  97.2812 236.6097 0001716  66.7198 161.0789 15.88914716  2785
Epoch: 2026-04-05T14:00Z
TLE epoch observation values (Epoch: 2026-04-05T14:00:03.000Z)
Latitude
-47.5702°
Longitude
4.72099°
Altitude
324.931 km
Speed
7.711 km/s
True Right ascension
03h 14m 28s
True Declination
-47° 23' 16"
Sunlit
Object was in daylight at epoch
Visualization orbit readout
Latitude
Unknown
Longitude
Unknown
Altitude
Unknown
Speed
Unknown
Apparent Right ascension
Unknown
Apparent Declination
Unknown
Sunlit
N/A
Visualization observer readout
Local Sidereal Time
02:56:18
Azimuth
Unknown
Elevation
Unknown
Doppler factor
Unknown
Orbital elements
Apogee altitude
303.34 km
Perigee altitude
301.047 km
Semi-major axis
6,680.331 km
Eccentricity
0.00017
Inclination
97.2812°
RAAN
236.6097°
Arg. of periapsis
66.7198°
True anomaly
161.08528°
Mean anomaly
161.0789°
Eccentric anomaly
161.08209°
Mean motion
3.97508 °/min
Orbital period
90.56 mins
BSTAR
-0.0079307
Loading maneuver chart data...
Computing Atmospheric mass density...
Loading historical data...
Loading historical data...
Loading historical data...
Loading historical data...
Loading historical data...
Loading historical data...
Loading historical data...

Documentation

Showing up to 5 results
|